Regional Weather Roundup
Issued by NWS

Home | Current Version | Previous Version | Text Only | Print | Product List | Glossary Off
Versions: 1 2 3 4 5 6 7 8 9 10 11 12 13 14 15 16 17 18 19 20 21 22 23 24 25 26 27 28 29 30 31 32 33 34 35 36 37 38 39 40 41 42 43 44 45 46 47 48 49 50

000
ASUS43 KFSD 290510
RWRSD

WEATHER ROUNDUP FOR SOUTH DAKOTA
NATIONAL WEATHER SERVICE SIOUX FALLS SD
1200 AM CDT THU JUN 29 2017

NOTE: "FAIR" INDICATES FEW OR NO CLOUDS BELOW 12,000 FEET WITH NO
SIGNIFICANT WEATHER AND/OR OBSTRUCTIONS TO VISIBILITY.


SDZ001>005-009-010-012>017-290600-
NORTHWEST AND NORTH CENTRAL SOUTH DAKOTA

CITY           SKY/WX    TMP DP  RH WIND       PRES   REMARKS
BUFFALO          N/A     62  52  69 NW7       29.73F
FAITH            N/A     69  42  37 N10       29.76F
MOBRIDGE       CLOUDY    64  42  44 NE7       29.74R
$$

SDZ012>016-024>037-041>051-057-063-072>074-290600-
SOUTHWEST AND SOUTH CENTRAL SOUTH DAKOTA

CITY           SKY/WX    TMP DP  RH WIND       PRES   REMARKS
RAPID CTY ARPT MOCLDY    60  51  72 NW7       29.84F
PIERRE         PTCLDY    65  42  43 NE7       29.74R
CUSTER         CLOUDY    55  43  63 N6        29.93S
ELLSWORTH AFB  MOCLDY    62  50  64 N8        29.83F
PHILIP         CLOUDY    69  52  54 N8        29.81R
PINE RIDGE     CLOUDY    63  55  75 NE10      29.78F
SPEARFISH      MOCLDY    55  54  94 S6        29.86F
WINNER         FAIR      71  47  42 E3        29.75S
$$

SDZ004>011-016>023-039-040-290600-
NORTHEAST SOUTH DAKOTA

CITY           SKY/WX    TMP DP  RH WIND       PRES   REMARKS
ABERDEEN       CLEAR     58  48  69 N6        29.73R
WATERTOWN      CLEAR     59  58  96 N3        29.73R
BROOKINGS      CLEAR     61  53  75 CALM      29.74R
SISSETON         N/A     64  61  90 NW9       29.70R
$$

SDZ017-020-022-023-036>040-048>070-290600-
SOUTHEAST SOUTH DAKOTA

CITY           SKY/WX    TMP DP  RH WIND       PRES   REMARKS
SIOUX FALLS    CLEAR     64  57  78 CALM      29.71R
HURON          CLOUDY    62  48  60 NE5       29.71S
CHAMBERLAIN    CLEAR     67  46  46 CALM      29.76R
MITCHELL       CLOUDY    67  47  48 CALM      29.72R
YANKTON        CLEAR     67  62  84 NW5       29.71R
$$

ABBREVIATIONS USED IN REMARKS
   TC - TEMPERATURE IN CELSIUS
  WCI - WIND CHILL INDEX
   HX - HEAT INDEX
  VSB - VISIBILITY





USA.gov is the U.S. government's official web portal to all federal, state and local government web resources and services.